Flag for France Weather past 2 weeks in Bordeaux, France

Now
66 °F

Clear.


Feels Like: 66 °F
Forecast: 63 / 87 °F
Wind: 5 mph from Northeast

Location: Bordeaux / Merignac

Current Time: Jun 4, 2015 at 2:03:19 AM

Latest Report: Jun 4, 2015 at 1:30 AM


Visibility: 10 mi

Pressure: 30.18 "Hg

Humidity: 78%

Dew point: 59 °F

Location of BordeauxLocation

Historic Weather in Bordeaux — Graph

°F

Bordeaux temperature yesterday

Maximum temperature yesterday: 79 °F (at 4:30 PM)
Minimum temperature yesterday: 55 °F (at 3:30 AM)
Average temperature yesterday: 67 °F

Past Weeks' High & Low Weather Summary

 TemperatureHumidityPressure
High79 °F (Jun 2, 2:30 PM)100% (May 23, 7:00 AM)30.42 "Hg (May 23, 7:00 AM)
Low45 °F (May 21, 6:00 AM)36% (May 27, 4:00 PM)30.01 "Hg (May 29, 3:30 PM)
Average62 °F71%30.17 "Hg
* Reported May 20 1:00 AM — Jun 4 1:00 AM, Bordeaux, Weather by CustomWeather, © 2015

Note: Actual official high and low records may vary slightly from our data, if they occured in-between our weather recording intervals... More about our weather records

Advertising

Bordeaux weather history for previous 24 hours

 ConditionsComfort  
Time TempWeatherWind HumidityBarometerVisibility
1:00 AM
Thu, Jun 4
66 °FClear.5 mph78%30.18 "Hg10 mi
12:30 AM66 °FClear.6 mph78%30.18 "Hg10 mi
12:00 AM66 °FClear.6 mph78%30.18 "Hg10 mi
11:30 PM
Wed, Jun 3
68 °FClear.6 mph73%30.18 "Hg10 mi
11:00 PM68 °FClear.8 mph73%30.18 "Hg10 mi
10:30 PM70 °FSunny.7 mph69%30.18 "Hg10 mi
10:00 PM72 °FSunny.9 mph65%30.18 "Hg10 mi
9:30 PM73 °FSunny.8 mph61%30.18 "Hg10 mi
9:00 PM75 °FSunny.10 mph57%30.18 "Hg10 mi
8:30 PM75 °FPassing clouds.9 mph57%30.18 "HgN/A
8:00 PM77 °FPassing clouds.9 mph57%30.18 "HgN/A
7:30 PM77 °FPassing clouds.9 mph54%30.18 "HgN/A
7:00 PM79 °FPassing clouds.8 mph51%30.18 "HgN/A
6:30 PM79 °FPassing clouds.8 mph54%30.18 "HgN/A
6:00 PM79 °FPassing clouds.5 mph51%30.18 "HgN/A
5:30 PM79 °FPassing clouds.7 mph48%30.18 "HgN/A
5:00 PM79 °FPassing clouds.7 mph51%30.21 "HgN/A
4:30 PM79 °FPassing clouds.6 mph51%30.21 "HgN/A
4:00 PM77 °FPassing clouds.7 mph51%30.21 "HgN/A
3:30 PM75 °FPassing clouds.8 mph54%30.21 "HgN/A
3:00 PM75 °FPassing clouds.6 mph54%30.24 "HgN/A
2:30 PM73 °FPassing clouds.6 mph57%30.24 "HgN/A
2:00 PM73 °FScattered clouds.7 mph57%30.24 "HgN/A
1:30 PM72 °FPartly sunny.5 mph61%30.27 "HgN/A
1:00 PM70 °FPartly sunny.6 mph64%30.27 "HgN/A
12:30 PM70 °FPartly sunny.6 mph64%30.27 "HgN/A
12:00 PM68 °FPartly sunny.7 mph69%30.27 "HgN/A
11:30 AM68 °FPartly sunny.6 mph64%30.27 "HgN/A
11:00 AM68 °FMostly cloudy.5 mph64%30.27 "HgN/A
10:30 AM66 °FMostly cloudy.3 mph68%30.27 "HgN/A
10:00 AM64 °FMostly cloudy.3 mph73%30.27 "HgN/A
9:30 AM63 °FOvercast.5 mph77%30.27 "HgN/A
9:00 AM63 °FOvercast.1 mph77%30.24 "HgN/A
8:30 AM61 °FOvercast.2 mph83%30.24 "HgN/A
8:00 AM61 °FOvercast.3 mph83%30.24 "HgN/A
7:30 AM61 °FOvercast.No wind88%30.24 "HgN/A
7:00 AM59 °FOvercast.2 mph88%30.24 "HgN/A
6:30 AM57 °FOvercast.No wind94%30.21 "HgN/A
6:00 AM57 °FOvercast.No wind94%30.21 "HgN/A
5:30 AM55 °FOvercast.1 mph100%30.21 "HgN/A
5:00 AM55 °FPassing clouds.3 mph94%30.21 "HgN/A
4:30 AM55 °FLight fog.3 mph94%30.21 "HgN/A
4:00 AM55 °FLight fog.2 mph94%30.21 "HgN/A
3:30 AM55 °FLight fog.2 mph94%30.18 "HgN/A
3:00 AM57 °FClear.2 mph88%30.18 "HgN/A
2:30 AM57 °FPassing clouds.6 mph94%30.18 "HgN/A
2:00 AM57 °FClear.3 mph88%30.18 "HgN/A
Weather by CustomWeather, © 2015

See weather overviewHow to use our weather pages